RH
21 20 19 17 16 18 21 23 23 22 20 18 22 33 38 39 45 49 43 43 47 39 32 27 28 29 31
23 23 21 18 17 18 21 23 23 21 18 20 32 39 43 47 53 52 42 48 44 33 27 30 32 36 39
25 25 23 18 17 20 23 23 21 18 20 31 41 44 54 58 59 50 45 45 36 35 37 38 40 44 44
26 25 22 19 19 22 24 22 20 21 33 43 48 58 67 70 61 42 40 34 35 34 34 39 43 42 45
27 27 22 20 22 25 22 20 25 36 48 51 57 69 72 54 38 35 39 34 32 30 35 40 39 43 51
29 22 22 23 24 20 18 30 49 53 57 54 50 47 36 36 36 35 34 32 33 38 39 41 45 54 57
23 26 26 27 20 24 38 56 61 46 30 27 32 34 36 38 33 36 40 42 47 43 42 50 54 55 55
32 34 38 24 34 55 58 47 33 28 36 41 40 38 35 44 47 50 49 48 46 44 51 56 58 57 55
44 43 36 46 53 49 39 37 37 40 39 37 36 39 44 45 48 45 42 48 50 55 62 63 59 51 48
49 63 59 45 40 44 54 60 59 54 47 44 42 45 45 42 42 40 49 54 57 63 65 61 52 44 43
68 47 53 74 80 79 74 74 70 62 62 53 57 53 48 45 46 57 60 64 63 60 59 54 48 44 38
68 88 88 90 80 72 75 74 76 75 72 67 56 51 49 43 48 59 65 60 54 54 54 51 49 46 37
97 94 90 74 75 78 80 81 72 79 73 71 52 48 44 53 56 57 48 54 53 50 52 53 47 41 34
94 87 93 96 88 79 72 68 55 50 47 42 45 56 65 64 61 56 51 48 51 53 50 50 43 35 28
98 97 96 83 73 67 59 55 49 48 53 60 64 64 60 55 54 48 47 55 56 52 47 44 40 34 25
87 84 81 77 67 57 52 54 60 64 66 63 58 58 58 58 60 57 57 53 54 50 47 43 39 31 20
81 74 67 60 63 69 75 68 63 62 55 51 51 54 56 64 62 56 53 51 46 46 44 43 36 27 19
Wind_Speed
25 24 23 23 24 25 25 25 24 26 26 28 29 31 33 34 36 39 41 45 47 49 49 50 50 50 50
28 26 24 25 27 28 27 28 26 29 29 30 30 32 35 38 40 42 44 47 49 49 47 48 52 53 54
30 29 27 28 29 30 29 31 29 29 31 32 32 34 36 40 43 45 47 49 49 50 49 52 53 55 55
32 31 30 28 30 32 31 31 32 32 32 33 34 37 40 43 45 48 48 49 50 51 53 54 55 54 53
34 32 34 27 33 33 31 35 37 35 34 36 37 40 43 45 46 45 47 49 51 52 53 53 54 53 51
35 34 32 32 34 34 36 39 40 38 38 38 41 41 42 41 43 45 47 48 49 51 52 52 50 50 51
34 36 33 34 36 36 40 42 40 40 38 32 36 39 41 41 42 45 47 49 54 52 49 48 49 49 50
36 33 35 39 38 39 39 40 38 34 35 35 37 39 37 39 42 45 48 51 51 48 45 46 48 48 48
40 38 42 40 39 37 35 32 32 33 35 40 38 38 39 38 40 44 46 46 44 43 43 42 45 46 46
41 41 39 36 31 27 26 27 30 33 34 38 36 39 42 40 40 42 40 40 40 39 38 38 41 45 47
38 33 27 25 25 28 33 36 39 42 41 40 43 44 46 48 39 37 38 35 34 34 33 36 40 44 49
29 28 30 32 35 37 38 41 44 46 44 44 45 44 46 45 40 37 33 35 36 36 36 37 39 40 41
32 34 37 41 42 44 46 42 38 40 43 45 43 42 42 39 37 36 36 33 36 41 41 40 43 43 47
39 42 43 38 38 33 31 32 32 33 35 37 37 33 30 31 32 35 39 43 43 45 46 43 39 41 44
39 37 34 31 30 31 32 33 34 34 31 29 27 26 26 28 32 37 40 40 43 46 48 47 41 44 45
29 29 30 32 31 31 32 30 27 24 22 21 20 23 27 32 35 38 38 42 43 46 47 48 44 44 45
28 32 31 28 27 25 21 19 18 17 17 21 25 26 28 29 32 38 40 43 46 46 47 46 46 46 48
Wind_Direction
247 252 257 266 271 276 278 282 289 294 297 300 302 303 304 307 309 310 310 308 309 309 310 312 312 312 312
248 253 259 267 271 274 280 283 291 293 298 299 301 303 305 306 307 307 307 307 308 310 311 311 310 311 310
250 256 259 266 272 275 280 284 287 292 295 296 298 299 302 302 303 304 306 308 309 309 311 310 309 310 311
252 258 264 266 275 277 278 286 288 288 289 292 295 299 299 300 303 303 305 305 306 307 309 310 309 310 310
254 258 264 272 273 275 283 284 283 284 286 291 294 295 296 299 301 304 304 304 306 310 311 312 313 312 312
254 263 267 270 274 279 282 280 281 283 286 291 294 295 297 300 303 304 302 305 309 311 313 313 312 312 312
258 262 266 268 271 277 278 279 286 290 292 296 299 301 301 301 304 305 307 309 311 313 314 313 312 312 314
259 264 271 271 273 276 279 282 285 288 294 300 300 299 302 305 307 307 308 310 311 311 311 312 313 314 314
256 256 263 268 270 274 278 283 287 293 300 301 303 304 306 307 310 308 306 305 309 311 312 313 312 313 313
249 258 264 268 268 267 275 283 294 301 309 306 309 309 311 311 309 304 306 308 310 312 313 313 313 314 315
251 253 247 249 262 274 283 291 295 298 300 302 305 308 309 310 313 310 312 312 314 315 316 315 316 319 320
236 247 256 267 276 286 292 294 295 295 296 299 303 304 308 308 311 311 317 319 321 319 318 321 324 321 319
248 262 272 277 286 289 289 291 293 289 287 290 295 303 305 308 314 317 322 322 320 320 325 328 327 326 322
264 269 272 276 278 278 279 283 291 291 290 292 297 300 308 315 318 320 321 323 325 324 324 329 331 328 324
256 259 263 263 266 273 279 284 286 290 296 298 304 310 315 321 319 319 321 321 322 324 325 328 333 327 327
251 256 259 262 270 276 278 281 286 292 297 303 311 317 321 318 316 316 318 320 321 322 324 325 328 329 331
259 269 267 271 271 271 274 279 285 292 304 311 312 313 312 310 313 315 320 322 323 322 323 327 330 333 332